Simultaneous Nadir Overpasses (SNOs) Predictions

Prediction of SNOs between GOES-17 and METOP-B Satellite Orbit:

Table of predicted SNOs for the next 14.0 days since TLE Epoch: 8/19/2023
Index Date Time (GOES-17) GOES-17 Lat,Lon METOP-B Lat,Lon Distance(km) Time Diff (sec)
1 08/19/2023 16:21:20 0.00,-104.72 -0.40,-102.84 212.86 80
2 08/21/2023 04:40:19 -0.00,-104.69 -0.63,-107.44 313.52 80
3 08/22/2023 04:17:00 -0.00,-104.69 0.51,-102.45 255.49 80
4 08/23/2023 16:35:50 0.00,-104.71 0.52,-107.01 262.10 80
5 08/24/2023 16:17:50 0.00,-104.71 -0.57,-102.01 306.95 80
6 08/26/2023 04:36:49 0.00,-104.68 -0.45,-106.61 219.93 80
7 08/27/2023 04:13:30 -0.00,-104.67 0.70,-101.62 348.58 80
8 08/28/2023 16:32:20 0.00,-104.69 0.32,-106.18 169.92 80
9 08/29/2023 16:14:19 0.00,-104.68 -0.78,-101.18 399.03 80
10 08/31/2023 04:33:19 -0.00,-104.66 -0.23,-105.78 127.26 80
11 09/01/2023 04:09:58 -0.01,-104.65 0.87,-100.78 441.69 80
